Regional Weather Roundup
Issued by NWS

Home | Current Version | Previous Version | Graphics & Text | Print | Product List | Glossary On
Versions: 1 2 3 4 5 6 7 8 9 10 11 12 13 14 15 16 17 18 19 20 21 22 23 24 25 26 27
000
ASUS45 KGTF 251910
RWRMT
MONTANA HOURLY WEATHER ROUNDUP
NATIONAL WEATHER SERVICE GREAT FALLS MT
100 PM MDT SAT APR 25 2015

NOTE: "FAIR" INDICATES FEW OR NO CLOUDS BELOW 12000 FEET WITH NO
SIGNIFICANT WEATHER AND/OR OBSTRUCTIONS TO VISIBILITY.

MTZ001>007-043-252000-
WEST OF THE DIVIDE

CITY           SKY/WX    TMP DP  RH WIND       PRES   REMARKS
KALISPELL      MOCLDY    53  25  33 S8        29.82F
MISSOULA       PTSUNNY   50  20  30 VRB6      29.82F
BUTTE          PTSUNNY   40  20  44 SE3       29.80F
DEER LODGE       N/A     45  25  45 CALM      29.83F
EUREKA           N/A     50  28  43 SW14      29.83S
HAMILTON         N/A     50  19  29 N3        29.80F
LIBBY            N/A     52  28  40 S6        29.83F
$$

MTZ008-052>055-252000-
SOUTHWEST MONTANA

CITY           SKY/WX    TMP DP  RH WIND       PRES   REMARKS
BOZEMAN        CLOUDY    42  34  73 CALM      29.83S
DILLON         PTSUNNY   43  28  55 CALM      29.79F
$$

MTZ009-010-012-014-046-048-049-054-252000-
EAST SLOPES AND CENTRAL MONTANA

CITY           SKY/WX    TMP DP  RH WIND       PRES   REMARKS
CUT BANK       MOSUNNY   47  28  47 N16       29.82R
GREAT FALLS    CLOUDY    50  29  44 MISG      29.80S
MALMSTROM AFB  PTSUNNY   48  28  44 NW8G14    29.80F
HELENA         CLOUDY    52  21  29 CALM      29.78F
$$

MTZ011-013-016-021-045-047-050-051-252000-
NORTH CENTRAL MONTANA

CITY           SKY/WX    TMP DP  RH WIND       PRES   REMARKS
HAVRE          PTSUNNY   51  33  50 NW17G23   29.78S
LEWISTOWN      CLOUDY    45  31  58 W8        29.80R
CHINOOK          N/A     54  36  50 W10G18    29.76S
FORT BENTON      N/A     54  28  37 W9        29.79F
$$

MTZ017>020-022>042-056>058-061-062-252000-
EASTERN PLAINS

CITY           SKY/WX    TMP DP  RH WIND       PRES   REMARKS
BAKER          CLOUDY    52  45  77 SE22      29.68F
BILLINGS       LGT RAIN  43  37  79 NE8       29.81R
GLASGOW        HVY RAIN  43  40  89 NW15      29.71S FOG
JORDAN           N/A     40  37  89 N12       29.75S
LIVINGSTON     CLOUDY    44  35  70 SW9       29.79F
MILES CITY     LGT RAIN  47  41  80 NW24      29.71R
SIDNEY         PTSUNNY   57  43  58 SE16      29.72S
WOLF POINT     PTSUNNY   62  43  49 W13       29.66S
BIG TIMBER       N/A     45  34  65 N5        29.80R
FORSYTH          N/A     39  39 100 W13       29.78R WCI  32
PLENTYWOOD       N/A     55  43  62 E22G35    29.69F
POPLAR           N/A     64  45  48 S12       29.66S
$$

REGIONAL REPORTS...DAKOTAS

CITY           SKY/WX    TMP DP  RH WIND       PRES   REMARKS
WILLISTON      CLOUDY    50  42  74 SE15      29.75R
MINOT          CLOUDY    55  38  52 E17       29.80S
DICKINSON      CLOUDY    47  43  86 SE16G24   29.73S
BEACH          CLOUDY    48  46  93 SE21      29.72S
CROSBY         CLOUDY    48  45  87 SE17G23   29.78S
WATFORD CITY   CLOUDY    48  43  81 SE15      29.73S
BISMARCK       CLOUDY    49  41  74 E14       29.82R
GRAND FORKS    MOSUNNY   58  36  43 VRB3      29.88F
FARGO          CLOUDY    52  38  58 SE12      29.88F
BUFFALO SD       N/A     48  44  86 SE17      29.66S
RAPID CITY     CLOUDY    50  46  86 SE16      29.71F FOG
$$

REGIONAL REPORTS...WYOMING/IDAHO/WASHINGTON

CITY           SKY/WX    TMP DP  RH WIND       PRES   REMARKS
GILLETTE       CLOUDY    46  41  82 NW17      29.72R
SHERIDAN       CLOUDY    43  35  73 N16       29.79R
BUFFALO WY     CLOUDY    39  33  79 N22G33    29.76R WCI  29
CODY           CLOUDY    43  37  81 N13       29.77S
YELLOWSTONE LA   N/A     33  23  66 CALM      29.82R
IDAHO FALLS    PTSUNNY   49  28  44 SW10      29.80F
SALMON         MOSUNNY   50  28  43 CALM      29.77F
BOISE          MOSUNNY   57  28  33 NW13      29.79F
SPOKANE        PTSUNNY   48  35  60 SW12      29.86S
$$

REGIONAL REPORTS...ALBERTA

CITY           SKY/WX    TMP DP  RH WIND       PRES   REMARKS
EDMONTON       PTSUNNY   39  16  38 NE13      29.99R WCI  32
CALGARY        CLOUDY    39  30  70 N16G23    29.89R WCI  30
LETHBRIDGE     PTSUNNY   45  30  57 NW14G22   29.86R
MEDICINE HAT   CLOUDY    39  34  81 NW12      29.85R WCI  32
$$

REGIONAL REPORTS...SASKATCHEWAN

CITY           SKY/WX    TMP DP  RH WIND       PRES   REMARKS
SWIFT CURRENT  LGT RAIN  34  34 100 N12       29.76S WCI  25
REGINA         CLOUDY    46  43  87 SE18G25   29.78R
SASKATOON      LGT SNOW  30  28  93 NE20G25   29.91R WCI  18
$$



USA.gov is the U.S. government's official web portal to all federal, state and local government web resources and services.